1498996800.58,3341,17.94,73752.0,8.81,9.53,9.61,0,*48
1498996801.81,3342,17.94,73754.0,8.81,9.47,9.53,0,*4F
1498996803.06,3343,17.94,73756.8,8.81,9.49,9.53,0,*40
1498996804.31,3344,17.88,73754.8,8.81,9.35,9.39,0,*40
1498996805.53,3345,17.88,73752.5,8.85,9.11,9.21,0,*4A
1498996806.75,3346,17.94,73756.0,8.85,9.11,9.21,0,*49
1498996807.96,3347,17.94,73756.0,8.85,9.07,9.21,0,*4F
1498996809.18,3348,17.94,73756.8,8.85,8.97,9.07,0,*4C
1498996810.4,3349,17.88,73752.0,8.81,9.07,9.15,0,*42
1498996811.62,3350,17.94,73754.0,8.81,9.15,9.25,0,*4A
1498996812.81,3351,17.94,73752.3,8.87,9.21,9.35,0,*4B
1498996814.01,3352,17.88,73754.8,8.85,9.29,9.33,0,*44
1498996815.2,3353,17.88,73750.8,8.85,9.29,9.43,0,*42
1498996816.43,3354,17.88,73752.5,8.85,9.43,9.49,0,*43
1498996817.65,3355,17.94,73754.0,8.87,9.57,9.61,0,*4F
1498996818.84,3356,17.94,73752.8,8.87,9.57,9.67,0,*4A
1498996820.06,3357,17.94,73756.3,8.85,9.53,9.63,0,*49
1498996821.22,3358,17.94,73754.0,8.87,9.67,9.71,0,*40
1498996822.45,3359,17.94,73754.3,8.85,9.57,9.67,0,*47
1498996823.64,3360,17.94,73754.5,8.87,9.35,9.43,0,*4D
1498996824.84,3361,17.94,73758.3,8.87,9.01,9.03,0,*4F
1498996826.06,3362,17.94,73758.0,8.87,8.89,9.01,0,*4F
1498996827.26,3363,17.94,73754.5,8.87,9.03,9.15,0,*48
1498996828.47,3364,17.94,73758.0,8.87,9.11,9.15,0,*4C
1498996829.66,3365,17.94,73754.0,8.87,9.03,9.11,0,*4A
1498996830.88,3366,17.94,73758.8,8.87,8.89,9.01,0,*4B
1498996832.08,3367,17.94,73754.3,8.87,8.87,8.89,0,*45
1498996833.26,3368,17.94,73758.5,8.87,8.79,8.87,0,*45
1498996834.44,3369,17.94,73756.3,8.87,8.65,8.75,0,*44
1498996835.69,3370,17.94,73756.0,8.85,8.75,8.75,0,*4F
1498996836.89,3371,17.94,73754.5,8.85,8.83,8.83,0,*4E
1498996838.09,3372,17.94,73758.3,8.87,8.87,8.89,0,*41
1498996839.26,3373,17.94,73758.0,8.87,8.79,8.87,0,*4F
1498996840.45,3374,17.94,73758.8,8.87,8.65,8.75,0,*48
1498996841.64,3375,17.94,73758.8,8.85,8.61,8.65,0,*4E
1498996842.88,3376,17.94,73754.0,8.85,8.75,8.89,0,*4A
1498996844.13,3377,17.94,73756.8,8.85,8.89,8.97,0,*47
1498996845.38,3378,17.88,73754.3,8.85,8.89,9.01,0,*46
1498996846.58,3379,17.94,73752.5,8.85,8.83,8.83,0,*46
1498996847.83,3380,17.94,73752.0,8.85,8.89,8.89,0,*40
1498996849.05,3381,17.94,73754.8,8.85,8.87,8.89,0,*4F
1498996850.27,3382,17.94,73756.0,8.85,8.61,8.71,0,*43
1498996851.52,3383,17.94,73754.8,8.85,8.55,8.51,0,*47
1498996852.77,3384,17.94,73756.3,8.85,8.75,8.75,0,*44
1498996853.97,3385,17.94,73758.3,8.81,8.87,8.87,0,*41
1498996855.17,3386,17.94,73756.5,8.81,8.79,8.83,0,*47
1498996856.37,3387,17.94,73752.0,8.81,8.61,8.61,0,*43
1498996857.58,3388,17.94,73752.8,8.81,8.27,8.27,0,*4C
1498996858.76,3389,17.94,73754.0,8.79,8.15,8.15,0,*4A
1498996859.96,3390,17.94,73754.5,8.79,8.19,8.29,0,*41
1498996861.18,3391,17.94,73756.8,8.79,8.51,8.51,0,*43
1498996862.4,3392,17.94,73758.5,8.79,8.51,8.51,0,*40
1498996863.66,3393,17.94,73756.8,8.77,8.47,8.55,0,*4C
1498996864.89,3394,17.94,73752.5,8.77,8.59,8.69,0,*4B
1498996866.08,3395,17.94,73754.8,8.77,8.69,8.69,0,*49
1498996867.31,3396,17.94,73754.3,8.75,8.79,8.89,0,*47
1498996868.54,3397,17.94,73758.5,8.77,8.93,9.03,0,*43
1498996869.79,3398,17.94,73754.3,8.77,8.89,8.93,0,*4F
1498996871.02,3399,17.94,73758.3,8.79,8.93,8.93,0,*4B
1498996872.24,3400,17.94,73754.3,8.77,8.65,8.75,0,*43
1498996873.46,3401,17.94,73758.3,8.77,8.59,8.69,0,*40
1498996874.69,3402,17.94,73756.0,8.77,8.75,8.83,0,*49
1498996875.88,3403,17.94,73756.5,8.75,8.65,8.65,0,*43
1498996877.09,3404,17.94,73754.3,8.75,8.59,8.65,0,*4B
1498996878.32,3405,17.94,73758.0,8.75,8.33,8.45,0,*44
1498996879.57,3406,17.94,73758.3,8.77,8.47,8.47,0,*44
1498996880.79,3407,17.94,73754.8,8.75,8.55,8.65,0,*44
1498996882.01,3408,17.94,73758.5,8.75,8.59,8.69,0,*4B
1498996883.22,3409,17.94,73756.0,8.75,8.23,8.27,0,*4D
1498996884.41,3410,17.94,73756.0,8.73,7.95,8.05,0,*41
1498996885.64,3411,17.94,73756.8,8.71,7.91,8.01,0,*42
1498996886.83,3412,17.94,73758.8,8.71,8.01,8.05,0,*43
1498996888.03,3413,17.94,73756.0,8.71,8.09,8.09,0,*46
1498996889.25,3414,17.94,73756.5,8.69,8.33,8.37,0,*4C
1498996890.48,3415,17.94,73756.0,8.69,8.33,8.37,0,*4D
1498996891.69,3416,17.94,73756.0,8.69,8.13,8.15,0,*4C
1498996892.86,3417,17.94,73756.0,8.69,8.01,8.01,0,*4B
1498996894.04,3418,17.94,73758.8,8.69,7.79,7.79,0,*44
1498996895.29,3419,17.94,73752.5,8.67,7.87,7.87,0,*4B
1498996896.52,3420,17.94,73752.0,8.65,7.95,7.95,0,*43
1498996897.74,3421,17.88,73752.8,8.63,7.95,7.97,0,*46
1498996898.98,3422,17.94,73756.0,8.65,8.13,8.13,0,*41
1498996900.22,3423,17.94,73758.0,8.63,8.29,8.41,0,*48
1498996901.46,3424,17.94,73754.0,8.63,8.29,8.29,0,*41
1498996902.71,3425,17.94,73750.8,8.63,8.33,8.41,0,*45
1498996903.96,3426,17.94,73756.0,8.63,8.51,8.55,0,*47
1498996905.22,3427,17.94,73754.8,8.63,8.51,8.55,0,*46
1498996906.39,3428,17.94,73756.0,8.65,8.61,8.69,0,*43
1498996907.58,3429,17.94,73758.3,8.63,8.69,8.69,0,*4C
1498996908.81,3430,17.94,73752.5,8.65,8.51,8.55,0,*46
1498996910.01,3431,17.94,73756.5,8.63,8.19,8.23,0,*4C
1498996911.24,3432,17.94,73754.8,8.63,7.65,7.55,0,*45
1498996912.43,3433,17.94,73754.8,8.63,6.75,6.93,0,*4F
1498996913.64,3434,17.94,73752.3,8.57,6.33,6.43,0,*40
1498996914.87,3435,17.94,73752.3,8.55,6.33,6.39,0,*4E
1498996916.11,3436,17.94,73754.8,8.55,6.69,6.65,0,*4B
1498996917.3,3437,17.94,73754.0,8.51,7.05,6.83,0,*4D
1498996918.52,3438,17.94,73754.5,8.49,7.19,7.27,0,*49
1498996919.74,3439,17.94,73752.8,8.49,7.47,7.47,0,*45
1498996920.97,3440,17.94,73752.5,8.49,7.69,7.73,0,*40
1498996922.21,3441,17.94,73752.0,8.51,7.87,7.87,0,*43
1498996923.41,3442,17.94,73754.8,8.49,8.19,8.29,0,*4A
1498996924.59,3443,17.94,73758.0,8.49,8.27,8.27,0,*48
1498996925.77,3444,17.94,73752.5,8.49,8.19,8.19,0,*4F
1498996926.99,3445,17.94,73752.5,8.49,8.29,8.41,0,*40
1498996928.19,3446,17.94,73758.5,8.49,7.95,7.97,0,*4F
1498996929.44,3447,17.94,73758.0,8.51,7.73,7.73,0,*45
1498996930.67,3448,17.94,73756.8,8.47,7.59,7.65,0,*42
1498996931.84,3449,17.94,73752.3,8.45,7.59,7.59,0,*4E
1498996933.05,3450,17.94,73756.3,8.45,7.47,7.59,0,*49
1498996934.27,3451,17.94,73754.5,8.45,7.23,7.23,0,*47
1498996935.49,3452,17.94,73752.0,8.41,6.73,6.79,0,*4A
1498996936.66,3453,17.94,73756.0,8.39,7.05,7.09,0,*42
1498996937.88,3454,17.94,73752.0,8.39,7.27,7.27,0,*49
1498996939.05,3455,17.94,73752.5,8.39,7.59,7.51,0,*40
1498996940.26,3456,17.94,73752.0,8.39,7.83,7.95,0,*4C
1498996941.46,3457,17.94,73752.8,8.39,7.95,7.97,0,*48
1498996942.62,3458,17.94,73752.3,8.39,8.09,8.09,0,*45
1498996943.79,3459,17.94,73754.0,8.39,8.19,8.19,0,*44
1498996945.0,3460,17.94,73754.0,8.41,8.15,8.19,0,*4D
1498996946.16,3461,17.94,73754.8,8.39,8.09,8.19,0,*4E
1498996947.4,3462,17.94,73758.8,8.41,8.29,8.29,0,*43
1498996948.57,3463,17.94,73756.3,8.39,8.15,8.19,0,*41
1498996949.79,3464,17.94,73752.5,8.39,7.83,7.95,0,*4D
1498996950.99,3465,17.94,73754.8,8.39,7.27,7.29,0,*45
1498996952.21,3466,17.94,73754.5,8.39,7.15,7.19,0,*44
1498996953.42,3467,17.94,73758.5,8.39,7.47,7.47,0,*49
1498996954.64,3468,17.94,73756.3,8.39,7.69,7.73,0,*4D
1498996955.86,3469,17.94,73756.3,8.35,7.91,7.95,0,*4F
1498996957.04,3470,17.94,73752.3,8.39,8.19,8.19,0,*4F
1498996958.24,3471,17.94,73756.3,8.35,8.27,8.37,0,*43
1498996959.46,3472,17.94,73754.8,8.35,8.41,8.41,0,*41
1498996960.68,3473,17.94,73752.3,8.35,8.41,8.41,0,*40
1498996961.87,3474,17.94,73756.8,8.39,8.45,8.51,0,*4E
1498996963.07,3475,17.94,73754.5,8.39,8.45,8.55,0,*4B
1498996964.29,3476,17.94,73754.8,8.41,8.37,8.45,0,*43
1498996965.46,3477,17.94,73756.0,8.39,8.15,8.15,0,*48
1498996966.66,3478,17.94,73756.3,8.41,8.05,8.05,0,*48
1498996967.86,3479,17.94,73754.3,8.41,8.15,8.19,0,*45
1498996969.05,3480,17.94,73754.8,8.39,8.27,8.29,0,*4E
1498996970.27,3481,17.94,73756.0,8.39,8.29,8.37,0,*4E
1498996971.46,3482,17.94,73756.5,8.39,8.29,8.27,0,*4C
1498996972.68,3483,17.94,73754.3,8.45,8.37,8.33,0,*4C
1498996973.86,3484,17.94,73752.5,8.45,8.45,8.45,0,*4F
1498996975.06,3485,17.94,73756.0,8.41,8.45,8.45,0,*4A
1498996976.23,3486,17.94,73756.3,8.45,8.61,8.61,0,*4D
1498996977.47,3487,17.94,73754.0,8.41,8.71,8.75,0,*4C
1498996978.67,3488,17.94,73752.8,8.41,8.83,8.87,0,*43
1498996979.87,3489,17.94,73758.0,8.41,8.83,8.83,0,*46
1498996981.13,3490,17.94,73754.0,8.47,8.89,8.93,0,*43
1498996982.36,3491,17.94,73756.5,8.45,8.89,8.93,0,*40
1498996983.54,3492,17.94,73752.5,8.45,8.79,8.83,0,*4D
1498996984.77,3493,17.94,73756.5,8.47,8.59,8.61,0,*40
1498996986.0,3494,17.94,73754.3,8.47,8.59,8.61,0,*47
1498996987.22,3495,17.94,73752.0,8.47,8.69,8.71,0,*44
1498996988.44,3496,17.94,73754.5,8.47,8.71,8.83,0,*43
1498996989.66,3497,17.94,73756.0,8.47,8.71,8.79,0,*47
1498996990.88,3498,17.94,73754.5,8.47,8.69,8.71,0,*49
1498996992.13,3499,17.94,73754.5,8.47,8.59,8.59,0,*41
1498996993.35,3500,17.94,73752.0,8.47,8.45,8.47,0,*42
1498996994.58,3501,17.94,73752.5,8.45,8.51,8.51,0,*43
1498996995.83,3502,17.94,73754.5,8.47,8.51,8.51,0,*42
1498996997.05,3503,17.94,73752.8,8.47,8.45,8.51,0,*46
1498996998.25,3504,17.94,73752.0,8.45,8.51,8.61,0,*45
1498996999.48,3505,17.94,73752.0,8.47,8.59,8.61,0,*4E
1498997000.73,3506,17.94,73752.3,8.47,8.51,8.59,0,*4E
1498997001.98,3507,17.94,73754.8,8.47,8.47,8.59,0,*48
1498997003.23,3508,17.94,73756.0,8.47,8.51,8.51,0,*48
1498997004.48,3509,17.94,73752.8,8.47,8.51,8.51,0,*49
1498997005.73,3510,17.94,73754.8,8.47,8.59,8.59,0,*41
1498997006.96,3511,17.94,73756.0,8.49,8.41,8.47,0,*48
1498997008.14,3512,17.94,73752.0,8.49,8.27,8.27,0,*4D
1498997009.32,3513,17.94,73752.8,8.45,8.15,8.15,0,*40
1498997010.52,3514,17.94,73752.5,8.47,8.05,8.15,0,*44
1498997011.69,3515,17.94,73752.8,8.45,8.05,8.15,0,*47
1498997012.92,3516,17.94,73756.3,8.45,8.37,8.37,0,*45
1498997014.14,3517,17.94,73758.3,8.45,8.51,8.51,0,*44
1498997015.32,3518,17.94,73754.5,8.45,8.61,8.61,0,*4B
1498997016.55,3519,17.94,73756.5,8.45,7.69,7.69,0,*4A
1498997017.78,3520,17.94,73756.0,8.47,8.27,8.33,0,*47
1498997019.0,3521,17.94,73756.8,8.45,8.47,8.51,0,*46
1498997020.23,3522,17.94,73752.8,8.45,8.51,8.51,0,*42
1498997021.43,3523,17.94,73756.8,8.45,8.45,8.51,0,*46
1498997022.66,3524,17.94,73752.8,8.45,8.47,8.51,0,*43
1498997023.91,3525,17.94,73750.8,8.47,8.51,8.51,0,*47
1498997025.13,3526,17.94,73756.3,8.45,8.47,8.47,0,*46
1498997026.36,3527,17.94,73756.8,8.47,8.33,8.27,0,*40
1498997027.54,3528,17.94,73752.8,8.45,8.23,8.23,0,*48
1498997028.74,3529,17.94,73758.0,8.47,8.15,8.23,0,*4E
1498997029.92,3530,17.94,73758.8,8.45,8.01,8.05,0,*45
1498997031.1,3531,17.94,73754.0,8.45,8.15,8.15,0,*40
1498997032.29,3532,17.94,73754.3,8.45,8.15,8.27,0,*42
1498997033.5,3533,17.94,73754.5,8.45,8.27,8.37,0,*43
1498997034.72,3534,17.94,73758.0,8.45,8.37,8.37,0,*45
1498997035.92,3535,17.94,73752.8,8.45,8.45,8.47,0,*46
1498997037.14,3536,17.94,73754.8,8.39,8.37,8.37,0,*4C
1498997038.35,3537,17.94,73756.3,8.39,8.29,8.29,0,*4D
1498997039.57,3538,17.94,73756.5,8.41,7.95,7.97,0,*4F
1498997040.79,3539,17.94,73754.5,8.39,7.77,7.77,0,*43
1498997042.05,3540,17.94,73756.0,8.41,7.77,7.77,0,*42
1498997043.3,3541,17.94,73754.8,8.41,7.73,7.73,0,*43
1498997044.52,3542,17.94,73752.3,8.39,7.77,7.73,0,*4B
1498997045.74,3543,17.94,73756.3,8.39,7.73,7.73,0,*4E
1498997046.94,3544,17.94,73754.0,8.33,7.55,7.55,0,*43
1498997048.14,3545,17.94,73756.0,8.33,7.55,7.55,0,*42
1498997049.33,3546,17.94,73754.5,8.33,7.45,7.45,0,*41
1498997050.52,3547,17.94,73754.8,8.33,7.29,7.33,0,*4B
1498997051.72,3548,17.94,73756.3,8.31,6.91,6.97,0,*4B
1498997052.95,3549,17.94,73754.3,8.29,6.25,6.35,0,*44
1498997054.2,3550,17.94,73754.5,8.29,6.35,6.39,0,*41
1498997055.39,3551,17.94,73756.3,8.27,6.79,6.73,0,*48
1498997056.63,3552,17.94,73754.3,8.25,6.91,6.91,0,*43
1498997057.82,3553,17.94,73754.3,8.25,6.93,7.01,0,*48
1498997059.01,3554,17.94,73752.0,8.25,7.01,6.93,0,*4F
1498997060.17,3555,17.94,73752.3,8.23,7.01,7.09,0,*4A
1498997061.37,3556,17.94,73752.5,8.21,7.29,7.29,0,*43
1498997062.54,3557,17.94,73756.0,8.23,7.45,7.51,0,*45
1498997063.74,3558,17.94,73754.8,8.21,7.29,7.41,0,*43
1498997064.92,3559,17.94,73752.3,8.21,6.75,6.79,0,*40
1498997066.16,3560,17.94,73754.8,8.17,6.61,6.69,0,*4B
1498997067.38,3561,17.94,73756.0,8.19,6.57,6.73,0,*4A
1498997068.58,3562,17.94,73752.3,8.17,5.99,6.07,0,*45
1498997069.83,3563,17.94,73754.3,8.17,5.81,5.81,0,*40
1498997071.02,3564,17.94,73754.3,8.11,5.49,5.49,0,*41
1498997072.19,3565,17.94,73754.8,8.09,5.49,5.49,0,*49
1498997073.38,3566,17.94,73758.0,8.07,5.67,5.67,0,*44
1498997074.61,3567,17.94,73754.8,8.09,5.81,5.85,0,*4F
1498997075.79,3568,17.94,73752.8,8.05,6.03,6.03,0,*48
1498997076.97,3569,17.94,73752.5,8.05,6.33,6.33,0,*49
1498997078.18,3570,17.94,73748.3,8.05,6.61,6.69,0,*49
1498997079.34,3571,17.94,73752.5,8.05,7.05,7.05,0,*40
1498997080.53,3572,17.94,73754.3,8.03,7.33,7.33,0,*45
1498997081.76,3573,17.94,73750.3,8.03,7.61,7.51,0,*47
1498997083.02,3574,17.94,73750.0,8.03,7.69,7.73,0,*48
1498997084.24,3575,17.94,73748.0,8.05,7.91,7.95,0,*40
1498997085.46,3576,17.94,73750.8,8.05,7.91,7.91,0,*47
1498997086.67,3577,17.94,73750.5,8.05,7.91,7.83,0,*45
1498997087.87,3578,17.94,73752.3,8.05,7.83,7.79,0,*4C
1498997089.11,3579,17.94,73754.0,8.07,7.87,7.95,0,*49
1498997090.31,3580,17.94,73752.8,8.07,7.51,7.51,0,*4C
1498997091.55,3581,17.94,73750.3,8.07,7.15,7.11,0,*49
1498997092.74,3582,17.94,73750.5,8.07,6.83,6.83,0,*4E
1498997093.95,3583,17.94,73748.3,8.07,6.83,6.87,0,*4B
1498997095.14,3584,17.94,73750.5,8.07,7.05,7.05,0,*48
1498997096.36,3585,17.94,73750.8,8.05,7.11,7.11,0,*4B
1498997097.57,3586,17.94,73750.0,8.03,7.33,7.23,0,*4F
1498997098.77,3587,17.94,73754.5,8.05,7.51,7.47,0,*4E
1498997099.96,3588,17.94,73752.5,8.05,7.73,7.79,0,*4C
1498997101.18,3589,17.94,73752.5,8.05,7.83,7.91,0,*44
1498997102.38,3590,17.94,73752.5,8.05,7.95,8.05,0,*49
1498997103.55,3591,17.94,73750.3,8.09,8.09,8.09,0,*42
1498997104.72,3592,17.94,73750.3,8.09,8.09,8.09,0,*41
1498997105.96,3593,17.94,73752.5,8.07,7.65,7.73,0,*49
1498997107.16,3594,17.94,73752.5,8.07,7.45,7.51,0,*4C
1498997108.33,3595,17.94,73750.3,8.09,7.29,7.41,0,*48
1498997109.53,3596,17.94,73752.8,8.07,7.37,7.29,0,*44
1498997110.74,3597,17.94,73750.0,8.05,7.19,7.15,0,*44
1498997111.94,3598,17.94,73750.3,8.05,7.05,7.11,0,*42
1498997113.16,3599,17.94,73752.5,8.07,6.87,6.93,0,*41
1498997114.41,3600,17.94,73748.8,8.03,6.47,6.47,0,*43
1498997115.62,3601,17.94,73748.5,8.03,6.11,6.03,0,*41
1498997116.85,3602,17.94,73748.0,8.03,5.89,5.99,0,*40
1498997118.07,3603,17.94,73752.5,7.99,5.93,5.95,0,*4A
1498997119.3,3604,17.94,73750.5,7.99,6.25,6.17,0,*4A
1498997120.55,3605,17.94,73750.3,7.99,6.47,6.39,0,*43
1498997121.81,3606,17.94,73750.3,7.95,6.47,6.43,0,*41
1498997123.05,3607,17.94,73750.5,7.95,6.57,6.57,0,*44
1498997124.29,3608,17.94,73750.8,7.95,6.57,6.57,0,*4B
1498997125.48,3609,17.94,73750.3,7.93,6.69,6.79,0,*4D
1498997126.65,3610,17.94,73750.8,7.93,7.05,7.01,0,*40
1498997127.85,3611,17.94,73750.5,7.89,7.11,7.09,0,*47
1498997129.08,3612,17.94,73748.3,7.93,7.15,7.15,0,*46
1498997130.3,3613,17.94,73748.5,7.93,7.15,7.23,0,*42
1498997131.53,3614,17.94,73748.3,7.89,7.23,7.19,0,*42
1498997132.69,3615,17.94,73750.0,7.89,7.33,7.33,0,*4A
1498997133.9,3616,17.94,73754.5,7.93,7.47,7.51,0,*45
1498997135.13,3617,17.94,73750.3,7.93,7.61,7.61,0,*43
1498997136.36,3618,17.94,73750.5,7.97,7.83,7.77,0,*43
1498997137.58,3619,17.94,73752.5,7.93,7.83,7.83,0,*4D
1498997138.8,3620,17.94,73750.0,7.93,7.83,7.83,0,*47
1498997140.02,3621,17.94,73750.8,7.93,7.83,7.91,0,*45
1498997141.27,3622,17.94,73748.0,7.95,7.91,7.91,0,*43
1498997142.47,3623,17.94,73750.8,7.95,7.79,7.79,0,*42
1498997143.72,3624,17.94,73748.0,7.95,7.83,7.91,0,*46
1498997144.96,3625,17.94,73748.3,7.95,7.83,7.91,0,*47
1498997146.16,3626,17.94,73750.8,7.97,7.97,7.91,0,*43
1498997147.35,3627,17.94,73750.0,7.95,7.97,8.05,0,*42
1498997148.53,3628,17.94,73748.5,7.97,8.09,8.09,0,*4B
1498997149.7,3629,17.94,73752.0,7.97,8.09,8.09,0,*4A
1498997150.87,3630,17.94,73750.5,7.97,8.01,8.09,0,*4A
1498997152.09,3631,17.94,73748.0,7.97,7.87,7.83,0,*47
1498997153.32,3632,17.94,73748.0,7.97,7.65,7.61,0,*44
1498997154.52,3633,17.94,73748.5,7.97,7.65,7.55,0,*42
1498997155.69,3634,18.0,73754.5,7.97,7.51,7.41,0,*47
1498997156.92,3635,17.94,73748.8,7.95,7.15,7.09,0,*48
1498997158.11,3636,17.94,73746.3,7.97,7.15,7.05,0,*45
1498997159.36,3637,17.94,73750.0,7.95,7.27,7.23,0,*43
1498997160.58,3638,17.94,73748.3,7.95,7.51,7.47,0,*4F
1498997161.83,3639,17.94,73748.8,7.95,7.73,7.69,0,*42
1498997163.06,3640,17.94,73752.3,7.97,7.77,7.83,0,*4E
1498997164.28,3641,17.94,73752.8,7.97,7.77,7.83,0,*4F
1498997165.51,3642,17.94,73754.0,7.95,7.59,7.61,0,*4E
1498997166.68,3643,17.94,73750.0,7.97,7.41,7.41,0,*46
1498997167.86,3644,17.94,73748.3,7.97,7.41,7.45,0,*45
1498997169.09,3645,17.94,73750.3,7.97,7.61,7.73,0,*43
1498997170.31,3646,17.94,73750.3,7.95,7.79,7.83,0,*44
1498997171.53,3647,17.94,73748.8,7.97,7.77,7.83,0,*49
1498997172.76,3648,17.94,73748.3,7.95,7.73,7.79,0,*45
1498997173.99,3649,17.94,73750.5,7.97,7.77,7.83,0,*47
1498997175.21,3650,17.94,73748.8,7.97,7.87,7.87,0,*44
1498997176.44,3651,17.94,73750.0,7.95,7.69,7.79,0,*46
1498997177.66,3652,17.94,73750.3,7.97,7.61,7.65,0,*42
1498997178.89,3653,17.94,73752.3,7.97,7.61,7.65,0,*43
1498997180.12,3654,17.94,73754.8,7.95,7.59,7.61,0,*49
1498997181.37,3655,17.94,73754.0,7.95,7.69,7.73,0,*48
1498997182.6,3656,17.94,73752.0,7.97,7.73,7.77,0,*46
1498997183.85,3657,17.94,73756.5,7.95,7.69,7.73,0,*4A
1498997185.1,3658,17.94,73752.3,7.95,7.69,7.61,0,*46
1498997186.34,3659,17.94,73748.5,7.97,7.73,7.77,0,*49
1498997187.56,3660,17.94,73754.5,7.95,7.73,7.79,0,*4F
1498997188.81,3661,17.94,73748.5,7.95,7.83,7.83,0,*44
1498997190.05,3662,17.94,73752.0,7.95,7.83,7.83,0,*47
1498997191.28,3663,17.94,73754.5,7.95,7.79,7.83,0,*43
1498997192.45,3664,17.94,73754.0,7.97,7.97,7.97,0,*43
1498997193.62,3665,17.94,73754.0,7.97,8.01,8.01,0,*42
1498997194.82,3666,17.94,73754.0,7.95,7.97,8.05,0,*47
1498997196.02,3667,17.94,73748.5,7.97,7.95,8.01,0,*42
1498997197.22,3668,17.94,73750.8,7.97,7.95,7.97,0,*4D
1498997198.4,3669,17.94,73752.3,7.97,8.01,8.01,0,*4E
1498997199.59,3670,17.94,73752.8,7.95,7.97,7.97,0,*44
1498997200.76,3671,17.94,73752.8,7.97,7.97,8.01,0,*47
1498997201.94,3672,17.94,73754.0,7.97,8.01,8.01,0,*44
1498997203.14,3673,17.94,73750.3,7.99,8.01,8.01,0,*4B
1498997204.39,3674,17.94,73752.8,7.99,8.13,8.13,0,*4C
1498997205.58,3675,17.94,73748.0,7.99,8.09,8.19,0,*4C
1498997206.83,3676,17.94,73752.3,7.99,8.13,8.13,0,*4E
1498997208.03,3677,17.94,73748.0,7.99,8.09,7.97,0,*47
1498997209.25,3678,17.94,73748.5,7.99,7.97,7.95,0,*42
1498997210.42,3679,17.94,73752.3,8.01,7.97,7.97,0,*4F
1498997211.64,3680,17.94,73748.8,8.01,7.91,7.87,0,*4E
1498997212.88,3681,17.94,73752.8,7.99,7.83,7.83,0,*46
1498997214.08,3682,17.94,73748.0,8.01,7.77,7.79,0,*45
1498997215.33,3683,17.94,73750.8,7.99,7.65,7.61,0,*40
1498997216.58,3684,17.94,73750.0,7.99,7.61,7.61,0,*43
1498997217.83,3685,17.94,73752.5,7.99,7.73,7.65,0,*45
1498997219.06,3686,17.94,73752.8,7.97,7.87,7.77,0,*40
1498997220.28,3687,17.94,73748.8,7.97,7.87,7.87,0,*4E
1498997221.49,3688,17.94,73752.8,7.99,7.87,7.97,0,*4E
1498997222.75,3689,17.94,73748.5,7.99,7.95,7.95,0,*4E
1498997223.94,3690,17.94,73746.8,7.99,8.01,8.01,0,*46
1498997225.14,3691,17.94,73748.0,7.99,8.01,8.01,0,*47
1498997226.33,3692,17.94,73750.8,7.99,7.97,8.01,0,*44
1498997227.58,3693,17.94,73748.8,7.99,7.95,7.95,0,*45
1498997228.82,3694,17.94,73752.5,7.99,7.83,7.83,0,*42
1498997230.07,3695,17.94,73748.3,7.99,7.77,7.77,0,*43
1498997231.31,3696,17.94,73752.3,7.97,7.73,7.73,0,*4E
1498997232.54,3697,17.94,73754.0,7.97,7.77,7.73,0,*4B
1498997233.77,3698,18.0,73752.5,7.97,7.77,7.77,0,*40
1498997234.99,3699,17.94,73750.0,7.97,7.83,7.87,0,*45
1498997236.21,3700,17.94,73748.3,7.97,7.87,7.87,0,*40
1498997237.43,3701,17.94,73748.5,7.97,7.83,7.87,0,*45
1498997238.67,3702,17.94,73752.3,7.95,7.83,7.83,0,*40
1498997239.9,3703,17.94,73752.3,7.97,7.87,7.87,0,*43
1498997241.14,3704,17.94,73746.8,7.95,7.83,7.83,0,*46
1498997242.36,3705,17.94,73748.3,7.97,7.87,7.87,0,*45
1498997243.62,3706,17.94,73752.3,7.95,7.73,7.73,0,*44
1498997244.87,3707,17.94,73748.8,7.95,7.15,7.27,0,*44
1498997246.06,3708,17.94,73750.0,7.95,6.79,6.79,0,*4A
1498997247.3,3709,17.94,73750.5,7.95,6.73,6.69,0,*40
1498997248.5,3710,17.94,73752.3,7.95,6.83,6.83,0,*43
1498997249.67,3711,17.94,73752.3,7.93,6.93,7.01,0,*4E
1498997250.89,3712,17.94,73754.8,7.93,7.11,7.11,0,*47
1498997252.12,3713,17.94,73754.0,7.89,7.23,7.27,0,*49
1498997253.3,3714,17.94,73750.0,7.89,7.45,7.37,0,*4F
1498997254.47,3715,17.94,73750.5,7.89,7.37,7.37,0,*4B
1498997255.64,3716,17.94,73752.8,7.89,7.33,7.33,0,*48
1498997256.81,3717,17.94,73748.5,7.89,7.33,7.37,0,*4D
1498997258.01,3718,17.94,73752.5,7.89,7.47,7.37,0,*41
1498997259.24,3719,17.94,73752.8,7.89,7.27,7.23,0,*43
1498997260.4,3720,17.94,73750.0,7.89,7.01,7.01,0,*4D
1498997261.6,3721,17.94,73752.0,7.87,6.75,6.75,0,*42
1498997262.85,3722,17.94,73752.5,7.87,6.65,6.73,0,*46
1498997264.03,3723,17.94,73752.3,7.85,6.83,6.93,0,*43
1498997265.23,3724,17.94,73750.3,7.87,6.93,6.93,0,*47
1498997266.47,3725,17.94,73752.5,7.83,6.73,6.73,0,*42
1498997267.71,3726,17.94,73754.3,7.83,6.69,6.69,0,*41
1498997268.9,3727,17.94,73752.5,7.83,6.79,6.79,0,*40
1498997270.15,3728,17.94,73750.0,7.83,6.91,6.91,0,*4F
1498997271.32,3729,17.94,73754.5,7.81,7.05,7.05,0,*4C
1498997272.54,3730,17.94,73752.0,7.81,7.11,7.11,0,*44
1498997273.79,3731,17.94,73752.8,7.83,7.15,7.15,0,*47
1498997275.02,3732,17.94,73752.8,7.83,7.27,7.29,0,*4A
1498997276.22,3733,17.94,73750.5,7.81,7.51,7.47,0,*40
1498997277.44,3734,18.0,73754.8,7.83,7.51,7.61,0,*41
1498997278.64,3735,17.94,73752.8,7.83,7.59,7.59,0,*43
1498997279.82,3736,18.0,73756.0,7.81,7.59,7.59,0,*42
1498997281.07,3737,17.94,73748.8,7.83,7.61,7.61,0,*41
1498997282.33,3738,17.94,73750.3,7.83,7.61,7.61,0,*4E
1498997283.55,3739,17.94,73752.8,7.81,7.69,7.73,0,*46
1498997284.8,3740,17.94,73748.0,7.83,7.69,7.73,0,*4A
1498997286.04,3741,17.94,73750.8,7.85,7.61,7.73,0,*45
1498997287.24,3742,17.94,73748.0,7.85,7.51,7.61,0,*46
1498997288.46,3743,17.94,73750.3,7.83,7.37,7.47,0,*45
1498997289.66,3744,17.94,73750.3,7.83,7.29,7.37,0,*4A
1498997290.87,3745,17.94,73748.8,7.81,7.27,7.29,0,*48
1498997292.07,3746,18.0,73752.3,7.81,7.29,7.27,0,*4B
1498997293.3,3747,17.94,73750.5,7.81,7.27,7.27,0,*44
1498997294.52,3748,17.94,73750.3,7.79,7.11,7.15,0,*48
1498997295.68,3749,17.94,73748.0,7.79,7.01,7.09,0,*45
1498997296.85,3750,18.0,73754.5,7.79,7.09,7.09,0,*45
1498997298.04,3751,17.94,73752.0,7.79,7.09,7.15,0,*49
1498997299.21,3752,17.94,73750.0,7.79,7.09,7.09,0,*47
1498997300.44,3753,17.94,73748.3,7.77,6.65,6.75,0,*49
1498997301.66,3754,17.94,73750.5,7.77,6.07,6.13,0,*4A
1498997302.83,3755,17.94,73750.8,7.75,5.95,6.03,0,*40
1498997304.05,3756,17.94,73750.3,7.73,6.03,6.13,0,*48
1498997305.25,3757,17.94,73750.8,7.73,6.03,6.11,0,*4B
1498997306.45,3758,17.94,73754.0,7.73,6.21,6.25,0,*43
1498997307.63,3759,17.94,73752.8,7.71,6.25,6.29,0,*48
1498997308.81,3760,17.94,73752.0,7.67,6.33,6.33,0,*49
1498997310.02,3761,17.94,73750.8,7.67,6.57,6.69,0,*45
1498997311.22,3762,17.94,73750.3,7.67,6.97,6.91,0,*4D
1498997312.39,3763,17.94,73750.0,7.67,6.97,7.01,0,*44
1498997313.61,3764,17.94,73752.5,7.67,7.15,7.15,0,*4D
1498997314.77,3765,17.94,73748.3,7.71,7.37,7.41,0,*4A
1498997315.94,3766,17.94,73752.3,7.67,7.37,7.45,0,*4A
1498997317.13,3767,17.94,73752.8,7.67,7.47,7.59,0,*41
1498997318.35,3768,17.94,73752.0,7.67,7.47,7.47,0,*41
1498997319.52,3769,17.94,73754.0,7.71,7.51,7.51,0,*47
1498997320.69,3770,17.94,73754.8,7.71,7.51,7.59,0,*47
1498997321.86,3771,17.94,73752.5,7.71,7.51,7.59,0,*46
1498997323.03,3772,17.94,73752.0,7.71,7.37,7.37,0,*4D
1498997324.19,3773,17.94,73754.8,7.71,7.09,7.09,0,*4C
1498997325.41,3774,17.94,73754.5,7.71,7.15,7.15,0,*4B
1498997326.58,3775,17.94,73756.3,7.71,6.93,7.01,0,*40
1498997327.75,3776,17.94,73756.5,7.67,6.97,6.97,0,*4E
1498997328.95,3777,17.94,73756.0,7.67,6.79,6.91,0,*49
1498997330.11,3778,17.94,73754.8,7.67,6.75,6.75,0,*40
1498997331.33,3779,17.94,73752.8,7.67,6.57,6.65,0,*40
1498997332.55,3780,17.94,73758.8,7.67,6.53,6.47,0,*42
1498997333.8,3781,17.94,73756.5,7.65,6.53,6.51,0,*46
1498997335.02,3782,17.94,73754.3,7.63,6.43,6.43,0,*41
1498997336.21,3783,17.94,73754.3,7.63,6.33,6.33,0,*40
1498997337.37,3784,17.94,73758.5,7.63,6.07,6.07,0,*47
1498997338.54,3785,17.94,73750.8,7.59,5.71,5.67,0,*48